STARLINK-32310, 61662

Orbit data source: Space-Track

STARLINK-32310, 61662 is a payload satellite owned by SpaceX/Seattle (US) in LEO that was launched on Sat, 26 Oct 2024 UTC via an FALCON 9 launch vehicle from the Air Force Eastern Test Range (AFETR). Payload-class satellites include a variety of spacecraft equipped with specific instruments for various scientific and technological missions. These include communications satellites like Starlink; space stations such as the ISS; scientific satellites like the Hubble; Earth observation satellites from companies like Planet Labs, Umbra, and HawkEye 360; GPS; miniature CubeSats for education and research; and military/defense satellites.

Loading next visibility...
Identifier
61662, 2024-193B
Orbit
LEO
Last TLE update
6 hours ago
Origin
Manufacturer
SpaceX/Seattle
Mission
Operational Commercial Communications
Bus & Motor
STARLINK V2M, Unknown motor
Mass
730 kg wet, ~700 kg dry
Launch date (UTC)
2024-10-26 (8 months ago)
Launch vehicle
FALCON 9
Launch site
Air Force Eastern Test Range (AFETR)
Object type
Payload
Rocket body
Debris
Shape & HBR
Box + 2 Pan, 29 m
Radar Cross Section
36.964 m², Large (>1 m²)

Expand to show TLE details & history

TLE from 6 hours ago
0 STARLINK-32310
1 61662U 24193B   25182.14043572 -.00000568  00000-0 -70442-5 0  9997
2 61662  53.1599 179.4046 0001019  75.0148 285.0966 15.30196318 39243
Epoch: 2025-07-01T03:22Z
TLE epoch observation values (Epoch: 2025-07-01T03:22:13.646Z)
Latitude
0.00003°
Longitude
-150.5924°
Altitude
475.944 km
Speed
7.629 km/s
True Right ascension
11h 57m 37s
True Declination
0° 00' 00"
Sunlit
Object was in daylight at epoch
Visualization orbit readout
Latitude
-28.97381°
Longitude
52.67905°
Altitude
484.519 km
Speed
7.623 km/s
Apparent Right ascension
04h 33m 35s
Apparent Declination
-48° 26' 56"
Sunlit
Object is in daylight
Visualization observer readout
Local Sidereal Time
20:39:15
Azimuth
122.451° SE
Elevation
-46.353°
Doppler factor
1
Orbital elements
Apogee altitude
476.181 km
Perigee altitude
474.784 km
Semi-major axis
6,853.62 km
Eccentricity
0.0001
Inclination
53.1599°
RAAN
179.4046°
Arg. of periapsis
75.0148°
True anomaly
Unknown
Mean anomaly
285.0966°
Eccentric anomaly
Unknown
Mean motion
3.82528 °/min
Orbital period
94.11 mins
BSTAR
-0.0000070442
Loading maneuver chart data...
Loading SW <> Apogee altitude chart data...
Loading historical data...
Loading historical data...
Loading historical data...
Loading historical data...
Loading historical data...
Loading historical data...
Loading historical data...

STARLINK-32310 Visibility forecast

Observer location: undefined°, undefined°

Span
Click to sort rows by Start time (UTC) header in descending order
Start Az.
Max El. time (UTC)
Max El. Az.
Max El.
End time (UTC)
End Az.
6 mins2025-07-01 10:10:02.397Z292.712° NW2025-07-01 10:13:02.397Z212.032° SW33.197°2025-07-01 10:16:02.397Z155.49° SSE
4 mins2025-07-02 01:29:02.397Z164.187° S2025-07-02 01:31:02.397Z118.963° SE19.943°2025-07-02 01:33:02.397Z82.694° E
5 mins2025-07-02 03:06:02.397Z260.502° W2025-07-02 03:08:02.397Z311.284° NW34.268°2025-07-02 03:11:02.397Z34.606° NE
4 mins2025-07-02 08:04:02.397Z357.481° N2025-07-02 08:05:02.397Z22.595° NE22.64°2025-07-02 08:08:02.397Z82.168° E
|